Location: Bishop�s Knoyle
(51.0728°N, 2.1714°W)
Time: 14:24:40
(UTC+00:00)

Lacrosse 4 Rocket - Pass Details

Date: 18 September 2020
Orbit: 543 x 615 km, 68.0° (Epoch: 27 October)

Event Time Altitude Azimuth Distance (km) Brightness Sun altitude
Rises 22:35:32 0° 321° (NW) 2,717 5.9 -34.4°
Reaches altitude 10° 22:37:47 10° 315° (NW) 1,823 4.7 -34.5°
Enters shadow 22:38:25 14° 312° (NW) 1,578 4.3 -34.6°
